THOR ABLESTAR DEB, 2432

Orbit data source: Space-Track

THOR ABLESTAR DEB, 2432 is space debris in LEO originally from a launch on Thu, 05 Dec 1963 UTC launched from the Air Force Western Test Range (AFWTR). Debris objects in space refer to the collection of defunct objects orbiting the Earth. Examples of debris include non-operational satellites, rocket bodies, and fragments generated from explosions, collisions, or faulty payload assembly.

Loading next visibility...
Identifier
2432, 1963-049G
Orbit
LEO
Country
Flag of USUS
Related business
Manufacturer
Unknown
Mission
Spacecraft
Bus & Motor
Unknown
Mass
Unknown
Launch date (UTC)
1963-12-05 (62 years ago)
Launch vehicle
Unknown
Launch site
Air Force Western Test Range (AFWTR)
Object type
Payload
Rocket body
Debris
Shape & HBR
Unknown shape, 0.2 m
Radar Cross Section
Medium (>0.1 m² and <1 m²)

Expand to show TLE details & history
Last TLE update: 10 hours ago

TLE from 10 hours ago
0 THOR ABLESTAR DEB
1  2432U 63049G   26036.62780006  .00000109  00000-0  16088-3 0  9995
2  2432  89.9158  71.7160 0032352 252.5552 233.2622 13.48236775 54977
Epoch: 2026-02-05T15:04Z
TLE epoch observation values (Epoch: 2026-02-05T15:04:01.925Z)
Latitude
54.57258°
Longitude
-110.18708°
Altitude
1,102.316 km
Speed
7.299 km/s
True Right ascension
16h 46m 23s
True Declination
54° 25' 03"
Sunlit
Object was in daylight at epoch
Visualization orbit readout
Latitude
Unknown
Longitude
Unknown
Altitude
Unknown
Speed
Unknown
Apparent Right ascension
Unknown
Apparent Declination
Unknown
Sunlit
N/A
Visualization observer readout
Local Sidereal Time
02:49:22
Azimuth
Unknown
Elevation
Unknown
Doppler factor
Unknown
Orbital elements
Apogee altitude
1,099.92 km
Perigee altitude
1,051.69 km
Semi-major axis
7,453.942 km
Eccentricity
0.00324
Inclination
89.9158°
RAAN
71.716°
Arg. of periapsis
252.5552°
True anomaly
232.96582°
Mean anomaly
233.2622°
Eccentric anomaly
233.11394°
Mean motion
3.37259 °/min
Orbital period
106.74 mins
BSTAR
0.00016088
Loading maneuver chart data...
Computing Atmospheric mass density...
Loading historical data...
Loading historical data...
Loading historical data...
Loading historical data...
Loading historical data...
Loading historical data...
Loading historical data...

Documentation

Showing up to 5 results
|